Saint George, Bermuda

8:21 AM ADT on October 21, 2019 (GMT -0300)
Saint George

Weather History for 78016 - September, 2012

Change the Weather History Date:

Saturday, September 8, 2012

  Actual Average Record
Temperature  
Mean Temperature 83 °F -  
Max Temperature 85 °F 80 °F - ()
Min Temperature 81 °F 73 °F - ()
Cooling Degree Days 18    
Growing Degree Days 33 (Base 50)    
Moisture  
Dew Point 74 °F    
Average Humidity 74    
Maximum Humidity 84    
Minimum Humidity 63    
Precipitation  
Precipitation 0.16 in - - ()
Sea Level Pressure  
Sea Level Pressure 29.88 in    
Wind  
Wind Speed 15 mph ()    
Max Wind Speed 22 mph    
Max Gust Speed -    
Visibility 6.8 miles    
Events Rain    
T = Trace of Precipitation, MM = Missing Value Source: Averaged Metar Reports

Daily Weather History Graph

Daily Weather History Graph

Search for Another Location

Airport or City:

Astronomy

Sep. 08, 2012 Rise Set
Actual Time 6:58 AM ADT 7:33 PM ADT
Civil Twilight 6:33 AM ADT 7:58 PM ADT
Nautical Twilight 6:04 AM ADT 8:27 PM ADT
Astronomical Twilight 5:34 AM ADT 8:56 PM ADT
Moon No Moon Rise 2:12 PM ADT (9/8)
Length of Visible Light 13h 24m
Length of Day
12h 35m
Waning Gibbous, 49% of the Moon is Illuminated
Sep 8
Waning Gibbous
Sep 15
New
Sep 22
First Quarter
Sep 30
Full
Oct 8
Last Quarter

Hourly Weather History & Observations

Time (ADT) Temp. Heat Index Dew Point Humidity Pressure Visibility Wind Dir Wind Speed Gust Speed Precip Events Conditions
12:00 AM 82 °F - 74 °F 69% 29.96 in 9 mi NE 12.7 mph - -   Partly Cloudy
12:55 AM 82.4 °F 88.2 °F 73.4 °F 74% 29.95 in 6.2 mi NE 12.7 mph - N/A Rain Light Rain Showers
1:23 AM 82.4 °F 88.2 °F 73.4 °F 74% 29.95 in 6.2 mi NE 13.8 mph - N/A   Mostly Cloudy
1:55 AM 82.4 °F 88.2 °F 73.4 °F 74% 29.92 in 6.2 mi NE 12.7 mph - N/A   Mostly Cloudy
2:55 AM 82.4 °F 88.2 °F 73.4 °F 74% 29.92 in 6.2 mi NE 12.7 mph - N/A   Overcast
3:00 AM 82 °F - 74 °F 71% 29.92 in 9 mi NE 12.7 mph - -   Overcast
3:55 AM 82.4 °F 88.2 °F 73.4 °F 74% 29.89 in 6.2 mi NE 15.0 mph - N/A Rain Light Rain Showers
4:06 AM 82.4 °F 88.2 °F 73.4 °F 74% 29.92 in 6.2 mi NE 16.1 mph - N/A   Overcast
4:55 AM 82.4 °F 88.2 °F 73.4 °F 74% 29.89 in 6.2 mi NE 13.8 mph - N/A   Mostly Cloudy
5:55 AM 82.4 °F 88.2 °F 73.4 °F 74% 29.89 in 6.2 mi NE 16.1 mph - N/A   Mostly Cloudy
6:00 AM 82 °F - 73 °F 68% 29.90 in 9 mi NE 16.1 mph - -   Partly Cloudy
6:55 AM 82.4 °F 88.2 °F 73.4 °F 74% 29.89 in 6.2 mi NE 18.4 mph - N/A   Mostly Cloudy
7:55 AM 82.4 °F 88.2 °F 73.4 °F 74% 29.89 in 6.2 mi NE 18.4 mph - N/A   Mostly Cloudy
8:55 AM 82.4 °F 88.2 °F 73.4 °F 74% 29.89 in 6.2 mi NE 20.7 mph - N/A   Mostly Cloudy
9:00 AM 83 °F - 72 °F 63% 29.91 in 9 mi NE 20.7 mph - -   Partly Cloudy
9:55 AM 82.4 °F 88.2 °F 73.4 °F 74% 29.92 in 6.2 mi NE 21.9 mph - N/A   Overcast
10:55 AM 82.4 °F 87.2 °F 71.6 °F 70% 29.92 in 6.2 mi ENE 18.4 mph - N/A   Overcast
11:55 AM 82.4 °F 88.2 °F 73.4 °F 74% 29.92 in 6.2 mi ENE 20.7 mph - N/A   Overcast
12:00 PM 83 °F - 73 °F 64% 29.92 in 9 mi ENE 20.7 mph - -   Overcast
12:55 PM 82.4 °F 88.2 °F 73.4 °F 74% 29.89 in 6.2 mi NE 18.4 mph - N/A   Overcast
1:55 PM 84.2 °F 90.9 °F 73.4 °F 70% 29.89 in 6.2 mi NE 19.6 mph - N/A   Overcast
2:55 PM 84.2 °F 90.9 °F 73.4 °F 70% 29.86 in 6.2 mi NE 20.7 mph - N/A   Overcast
3:00 PM 83 °F - 73 °F 64% 29.88 in 9 mi NE 20.7 mph - -   Overcast
3:55 PM 82.4 °F 88.2 °F 73.4 °F 74% 29.86 in 6.2 mi NE 20.7 mph - N/A   Overcast
4:55 PM 82.4 °F 88.2 °F 73.4 °F 74% 29.83 in 6.2 mi NE 19.6 mph - N/A   Overcast
5:55 PM 82.4 °F 89.5 °F 75.2 °F 79% 29.83 in 6.2 mi NE 21.9 mph - N/A   Overcast
6:00 PM 83 °F - 74 °F 69% 29.84 in 9 mi NE 21.9 mph - -   Overcast
6:55 PM 82.4 °F 89.5 °F 75.2 °F 79% 29.83 in 6.2 mi NE 20.7 mph - N/A   Overcast
7:55 PM 82.4 °F 89.5 °F 75.2 °F 79% 29.83 in 6.2 mi NE 20.7 mph - N/A   Overcast
8:55 PM 82.4 °F 89.5 °F 75.2 °F 79% 29.80 in 6.2 mi NE 21.9 mph - N/A   Overcast
9:00 PM 83 °F - 75 °F 71% 29.83 in 9 mi NE 21.9 mph - -   Overcast
9:40 PM 82.4 °F 89.5 °F 75.2 °F 79% 29.83 in 6.2 mi NE 20.7 mph - N/A   Overcast
9:55 PM 82.4 °F 89.5 °F 75.2 °F 79% 29.83 in 6.2 mi NE 21.9 mph - N/A   Overcast
10:16 PM 82.4 °F 89.5 °F 75.2 °F 79% 29.83 in 6.2 mi NE 19.6 mph - N/A   Overcast
10:55 PM 82.4 °F 90.9 °F 77.0 °F 84% 29.83 in 6.2 mi NE 19.6 mph - N/A   Overcast
11:45 PM 82.4 °F 90.9 °F 77.0 °F 84% 29.80 in 6.2 mi NE 16.1 mph - N/A Rain Light Rain
11:55 PM 82.4 °F 90.9 °F 77.0 °F 84% 29.80 in 6.2 mi NE 16.1 mph - N/A Rain Light Rain